This is the latest recevied weather packets stored in our database for station/object WC4PEM-7. If no packets are shown the sender has not sent any weather packets the latest 10 day(s).
| Time | Temp. | Humidity | Pressure | Rain* | Wind** | Luminosity | Snow |
|---|---|---|---|---|---|---|---|
| 1777832321 | 23.89° C | 71% | 1017.4 hPa | 0 mm | - | - | - |
| 1777832021 | 23.33° C | 74% | 1017.4 hPa | 0 mm | - | - | - |
| 1777831721 | 23.33° C | 70% | 1017.3 hPa | 0 mm | - | - | - |
| 1777831514 | 23.33° C | 71% | 1017.6 hPa | 0 mm | - | - | - |
| 1777831421 | 23.33° C | 71% | 1017.6 hPa | 0 mm | - | - | - |
| 1777831288 | 23.33° C | 72% | 1017.6 hPa | 0 mm | - | - | - |
| 1777831203 | 23.33° C | 73% | 1017.6 hPa | 0 mm | - | - | - |
| 1777831121 | 23.33° C | 73% | 1017.6 hPa | 0 mm | - | - | - |
| 1777830967 | 23.33° C | 72% | 1017.6 hPa | 0 mm | - | - | - |
| 1777830821 | 23.33° C | 72% | 1017.6 hPa | 0 mm | - | - | - |
| 1777830786 | 23.33° C | 72% | 1017.7 hPa | 0 mm | - | - | - |
| 1777830710 | 23.33° C | 72% | 1017.7 hPa | 0 mm | - | - | - |
| 1777830521 | 23.33° C | 72% | 1017.7 hPa | 0 mm | - | - | - |
| 1777830221 | 23.33° C | 73% | 1017.7 hPa | 0 mm | - | - | - |
| 1777829921 | 23.33° C | 74% | 1017.6 hPa | 0 mm | - | - | - |
| 1777829621 | 22.78° C | 74% | 1017.7 hPa | 0 mm | - | - | - |
| 1777829467 | 22.78° C | 71% | 1017.8 hPa | 0 mm | - | - | - |
| 1777829321 | 22.78° C | 71% | 1017.8 hPa | 0 mm | - | - | - |
| 1777829118 | 22.78° C | 75% | 1017.8 hPa | 0 mm | - | - | - |
| 1777829021 | 23.33° C | 74% | 1017.8 hPa | 0 mm | - | - | - |
| 1777828721 | 22.78° C | 75% | 1017.8 hPa | 0 mm | - | - | - |
| 1777828421 | 22.78° C | 73% | 1018 hPa | 0 mm | - | - | - |
| 1777828278 | 22.78° C | 75% | 1017.9 hPa | 0 mm | - | - | - |
| 1777828121 | 22.78° C | 74% | 1017.8 hPa | 0 mm | - | - | - |
| 1777827821 | 22.78° C | 75% | 1017.9 hPa | 0 mm | - | - | - |
* Rain latest hour (hover to see other rain measurements)
** Current wind speed in m/s (hover to see current wind gust speed)